When you browse on this site, cookies collect data to enhance your experience and personalize the content and advertising you see.
Visit our Privacy Policy to learn more. By continuing to use the site, you agree to this use of cookies and data.
  • In Hungary
  • List of Countries
  • For 7 days
  • Water Temperature
  • Satellite Maps
  • Weather Map
  • News
  • Weather Widgets
  • user-avatar
    Login

    Hourly Weather Munich

    Today, 16 July, Tuesday

    Time Temperature Precipitation Wind Pressure Humidity
    00:00 +14°C° 0 mm 1 mps 716 mmHg 90%
    01:00 +13°C° 0 mm 2 mps 716 mmHg 92%
    02:00 +13°C° 0 mm 2 mps 716 mmHg 93%
    03:00 +13°C° 0 mm 2 mps 716 mmHg 94%
    04:00 +12°C° 0 mm 2 mps 716 mmHg 94%
    05:00 +13°C° 0 mm 2 mps 716 mmHg 93%
    06:00 +14°C° 0 mm 2 mps 717 mmHg 92%
    07:00 +15°C° 0 mm 2 mps 717 mmHg 89%
    08:00 +17°C° 0 mm 2 mps 717 mmHg 81%
    09:00 +19°C° 0 mm 2 mps 717 mmHg 74%
    10:00 +20°C° 0 mm 2 mps 717 mmHg 66%
    11:00 +21°C° 0 mm 3 mps 717 mmHg 63%
    12:00 +22°C° 0 mm 3 mps 717 mmHg 59%
    13:00 +24°C° 0 mm 3 mps 717 mmHg 56%
    14:00 +24°C° 0 mm 3 mps 716 mmHg 56%
    15:00 +24°C° 0 mm 3 mps 716 mmHg 55%
    16:00 +24°C° 0 mm 3 mps 716 mmHg 54%
    17:00 +22°C° 0 mm 3 mps 716 mmHg 61%
    18:00 +21°C° 0 mm 2 mps 716 mmHg 68%
    19:00 +21°C° 0 mm 1 mps 716 mmHg 75%
    20:00 +19°C° 0 mm 1 mps 716 mmHg 79%
    21:00 +16°C° 0 mm 1 mps 716 mmHg 82%
    22:00 +14°C° 0 mm 0 mps 716 mmHg 85%
    23:00 +13°C° 0 mm 0 mps 716 mmHg 86%

    Tomorrow, 17 July, Wednesday

    Time Temperature Precipitation Wind Pressure Humidity
    00:00 +14°C° 0 mm 1 mps 716 mmHg 88%
    01:00 +14°C° 0 mm 1 mps 716 mmHg 89%
    02:00 +14°C° 0 mm 1 mps 716 mmHg 89%
    03:00 +13°C° 0 mm 1 mps 716 mmHg 90%
    04:00 +13°C° 0 mm 1 mps 716 mmHg 91%
    05:00 +13°C° 0 mm 0 mps 716 mmHg 88%
    06:00 +14°C° 0 mm 0 mps 715 mmHg 84%
    07:00 +16°C° 0 mm 0 mps 715 mmHg 81%
    08:00 +18°C° 0 mm 0 mps 715 mmHg 74%
    09:00 +20°C° 0 mm 0 mps 715 mmHg 67%
    10:00 +24°C° 0 mm 1 mps 716 mmHg 60%
    11:00 +25°C° 0 mm 1 mps 715 mmHg 57%
    12:00 +25°C° 0 mm 1 mps 715 mmHg 54%
    13:00 +26°C° 0 mm 2 mps 715 mmHg 52%
    14:00 +26°C° 0.1 mm 2 mps 715 mmHg 53%
    15:00 +26°C° 0.1 mm 2 mps 715 mmHg 55%
    16:00 +26°C° 0.1 mm 3 mps 715 mmHg 56%
    17:00 +24°C° 0.3 mm 2 mps 714 mmHg 64%
    18:00 +23°C° 0.3 mm 1 mps 714 mmHg 72%
    19:00 +21°C° 0.3 mm 1 mps 714 mmHg 80%
    20:00 +20°C° 0.1 mm 1 mps 714 mmHg 82%
    21:00 +19°C° 0.1 mm 1 mps 714 mmHg 83%
    22:00 +16°C° 0.1 mm 1 mps 715 mmHg 85%
    23:00 +16°C° 0.1 mm 1 mps 715 mmHg 87%

    Day after tomorrow, 18 July, Thursday

    Time Temperature Precipitation Wind Pressure Humidity
    00:00 +15°C° 0.1 mm 1 mps 714 mmHg 88%
    01:00 +15°C° 0.1 mm 1 mps 714 mmHg 89%
    02:00 +15°C° 0 mm 1 mps 714 mmHg 89%
    03:00 +14°C° 0 mm 1 mps 714 mmHg 90%
    04:00 +14°C° 0 mm 1 mps 714 mmHg 90%
    05:00 +15°C° 0 mm 1 mps 714 mmHg 89%
    06:00 +16°C° 0 mm 1 mps 714 mmHg 87%
    07:00 +18°C° 0 mm 1 mps 714 mmHg 86%
    08:00 +20°C° 0.3 mm 1 mps 714 mmHg 80%
    09:00 +19°C° 0.3 mm 0 mps 714 mmHg 75%
    10:00 +21°C° 0.3 mm 0 mps 715 mmHg 70%
    11:00 +22°C° 0.3 mm 0 mps 714 mmHg 63%
    12:00 +25°C° 0.3 mm 1 mps 714 mmHg 56%
    13:00 +26°C° 0.3 mm 1 mps 714 mmHg 49%
    14:00 +26°C° 0.1 mm 1 mps 714 mmHg 49%
    15:00 +26°C° 0.1 mm 2 mps 714 mmHg 49%
    16:00 +26°C° 0.1 mm 2 mps 714 mmHg 49%
    17:00 +24°C° 0.2 mm 2 mps 714 mmHg 59%
    18:00 +23°C° 0.2 mm 2 mps 714 mmHg 68%
    19:00 +20°C° 0.2 mm 2 mps 714 mmHg 77%
    20:00 +19°C° 0.3 mm 2 mps 715 mmHg 80%
    21:00 +18°C° 0.3 mm 2 mps 715 mmHg 83%
    22:00 +16°C° 0.3 mm 2 mps 715 mmHg 86%
    23:00 +16°C° 0 mm 2 mps 715 mmHg 86%

    19 July, Friday

    Time Temperature Precipitation Wind Pressure Humidity
    00:00 +16°C° 0 mm 2 mps 715 mmHg 87%
    01:00 +15°C° 0 mm 2 mps 715 mmHg 87%
    02:00 +15°C° 0 mm 2 mps 715 mmHg 86%
    03:00 +15°C° 0 mm 2 mps 715 mmHg 86%
    04:00 +15°C° 0 mm 2 mps 715 mmHg 85%
    05:00 +16°C° 0 mm 1 mps 715 mmHg 84%
    06:00 +18°C° 0 mm 1 mps 716 mmHg 82%
    07:00 +19°C° 0 mm 1 mps 716 mmHg 80%
    08:00 +20°C° 0.3 mm 1 mps 716 mmHg 75%
    09:00 +22°C° 0.3 mm 1 mps 716 mmHg 70%
    10:00 +24°C° 0.3 mm 1 mps 716 mmHg 65%
    11:00 +25°C° 0.3 mm 1 mps 716 mmHg 60%
    12:00 +26°C° 0.3 mm 1 mps 716 mmHg 55%
    13:00 +27°C° 0.3 mm 2 mps 716 mmHg 50%
    14:00 +27°C° 0 mm 2 mps 716 mmHg 50%
    15:00 +27°C° 0 mm 2 mps 716 mmHg 50%
    16:00 +27°C° 0 mm 2 mps 716 mmHg 51%
    17:00 +25°C° 0.1 mm 2 mps 716 mmHg 59%
    18:00 +24°C° 0.1 mm 1 mps 716 mmHg 67%
    19:00 +22°C° 0.1 mm 1 mps 716 mmHg 75%
    20:00 +21°C° 0 mm 1 mps 716 mmHg 78%
    21:00 +20°C° 0 mm 1 mps 716 mmHg 80%
    22:00 +19°C° 0 mm 1 mps 717 mmHg 83%
    23:00 +18°C° 0 mm 1 mps 716 mmHg 84%

    20 July, Saturday

    Time Temperature Precipitation Wind Pressure Humidity
    00:00 +18°C° 0 mm 1 mps 716 mmHg 86%
    01:00 +16°C° 0 mm 1 mps 716 mmHg 88%
    02:00 +16°C° 0 mm 1 mps 716 mmHg 88%
    03:00 +16°C° 0 mm 1 mps 716 mmHg 88%
    04:00 +15°C° 0 mm 0 mps 716 mmHg 89%
    05:00 +18°C° 0 mm 1 mps 716 mmHg 86%
    06:00 +19°C° 0 mm 1 mps 716 mmHg 83%
    07:00 +20°C° 0 mm 1 mps 716 mmHg 80%
    08:00 +22°C° 0 mm 1 mps 716 mmHg 73%
    09:00 +24°C° 0 mm 2 mps 716 mmHg 66%
    10:00 +26°C° 0 mm 2 mps 717 mmHg 58%
    11:00 +27°C° 0 mm 2 mps 717 mmHg 55%
    12:00 +28°C° 0 mm 2 mps 716 mmHg 52%
    13:00 +30°C° 0 mm 2 mps 716 mmHg 49%
    14:00 +29°C° 0 mm 2 mps 716 mmHg 50%
    15:00 +29°C° 0 mm 2 mps 716 mmHg 51%
    16:00 +29°C° 0 mm 2 mps 716 mmHg 52%
    17:00 +27°C° 0.2 mm 2 mps 716 mmHg 60%
    18:00 +26°C° 0.2 mm 1 mps 716 mmHg 67%
    19:00 +24°C° 0.2 mm 1 mps 716 mmHg 74%
    20:00 +23°C° 0.6 mm 2 mps 716 mmHg 79%
    21:00 +21°C° 0.6 mm 3 mps 717 mmHg 84%
    22:00 +19°C° 0.6 mm 4 mps 717 mmHg 89%
    23:00 +18°C° 2.2 mm 4 mps 717 mmHg 91%

    21 July, Sunday

    Time Temperature Precipitation Wind Pressure Humidity
    00:00 +18°C° 2.2 mm 4 mps 718 mmHg 92%
    01:00 +17°C° 2.2 mm 4 mps 718 mmHg 94%
    02:00 +17°C° 0.2 mm 3 mps 718 mmHg 93%
    03:00 +17°C° 0.2 mm 2 mps 718 mmHg 92%
    04:00 +18°C° 0.2 mm 1 mps 718 mmHg 92%
    05:00 +19°C° 0 mm 1 mps 718 mmHg 89%
    06:00 +20°C° 0 mm 1 mps 719 mmHg 87%
    07:00 +20°C° 0 mm 1 mps 719 mmHg 85%
    08:00 +22°C° 0 mm 1 mps 719 mmHg 76%
    09:00 +24°C° 0 mm 1 mps 719 mmHg 68%
    10:00 +26°C° 0 mm 2 mps 720 mmHg 59%
    11:00 +26°C° 0.1 mm 2 mps 720 mmHg 60%
    12:00 +26°C° 0.1 mm 2 mps 719 mmHg 61%
    13:00 +27°C° 0.1 mm 3 mps 719 mmHg 62%
    14:00 +26°C° 0.7 mm 3 mps 719 mmHg 66%
    15:00 +26°C° 0.7 mm 3 mps 719 mmHg 70%
    16:00 +26°C° 0.7 mm 3 mps 719 mmHg 74%
    17:00 +25°C° 0.3 mm 2 mps 720 mmHg 77%
    18:00 +24°C° 0.3 mm 2 mps 720 mmHg 81%
    19:00 +23°C° 0.3 mm 1 mps 720 mmHg 84%
    20:00 +22°C° 0.2 mm 1 mps 720 mmHg 85%
    21:00 +21°C° 0.2 mm 1 mps 720 mmHg 87%
    22:00 +20°C° 0.2 mm 1 mps 721 mmHg 89%
    23:00 +19°C° 0 mm 1 mps 721 mmHg 89%
    Show more